Time_in_sec,gx,gy,gz
1314271965.94951940,0.02695834,0.01555835,-0.99951548
1314271965.98847508,0.02717993,0.01551970,-0.99951008
1314271966.04046059,0.02731796,0.01546142,-0.99950722
1314271966.08965206,0.02753264,0.01529312,-0.99950391
1314271966.14053679,0.02742197,0.01527647,-0.99950721
1314271966.18861985,0.02743105,0.01511960,-0.99950935
1314271966.23648381,0.02701409,0.01514695,-0.99952029
1314271966.28845000,0.02703299,0.01529665,-0.99951750
1314271966.33661652,0.02689894,0.01523066,-0.99952212
1314271966.38950038,0.02690196,0.01519533,-0.99952258
1314271966.43759584,0.02679629,0.01500346,-0.99952832
1314271966.48949504,0.02674036,0.01500447,-0.99952980
1314271966.54948521,0.02668869,0.01489198,-0.99953286
1314271966.58948040,0.02681579,0.01497361,-0.99952824
1314271966.63743019,0.02681617,0.01495289,-0.99952854
1314271966.68849468,0.02661821,0.01495646,-0.99953378
1314271966.73750615,0.02667058,0.01489722,-0.99953327
1314271966.78812027,0.02639283,0.01496257,-0.99953966
1314271966.83651519,0.02647056,0.01519982,-0.99953403
1314271966.88949633,0.02641982,0.01526477,-0.99953438
1314271966.94044542,0.02632215,0.01493400,-0.99954196
1314271966.98848891,0.02632225,0.01498864,-0.99954113
1314271967.03816843,0.02638882,0.01504380,-0.99953855
1314271967.08847594,0.02662822,0.01518366,-0.99953009
1314271967.14150453,0.02671726,0.01529280,-0.99952605
1314271967.19253731,0.02681871,0.01544556,-0.99952098
1314271967.23738194,0.02662049,0.01527543,-0.99952889
1314271967.29018354,0.02663053,0.01520216,-0.99952974
1314271967.34047031,0.02700160,0.01521966,-0.99951952
1314271967.38961315,0.02712654,0.01539430,-0.99951346
1314271967.44043231,0.02711833,0.01523971,-0.99951606
1314271967.48945737,0.02703612,0.01532873,-0.99951692
1314271967.53756046,0.02711674,0.01541993,-0.99951334
1314271967.58865643,0.02701954,0.01527001,-0.99951827
1314271967.63707638,0.02696333,0.01512715,-0.99952196
1314271967.68980908,0.02683094,0.01518207,-0.99952469
1314271967.74150324,0.02667273,0.01495658,-0.99953232
1314271967.78860617,0.02683265,0.01478169,-0.99953065
1314271967.83801699,0.02700503,0.01493454,-0.99952373
1314271967.88849425,0.02700233,0.01466330,-0.99952782
1314271967.94959593,0.02692779,0.01476210,-0.99952838
1314271967.98845267,0.02712481,0.01494088,-0.99952039
1314271968.04058743,0.02732766,0.01490577,-0.99951539
1314271968.08988476,0.02728544,0.01481499,-0.99951789
1314271968.14152002,0.02712032,0.01515122,-0.99951735
1314271968.18848872,0.02706544,0.01515544,-0.99951877
1314271968.24047852,0.02736489,0.01490378,-0.99951440
1314271968.28860331,0.02710067,0.01505999,-0.99951926
1314271968.33761144,0.02707506,0.01522440,-0.99951746
1314271968.40046573,0.02678247,0.01524310,-0.99952506
1314271968.43756723,0.02674570,0.01517401,-0.99952710
1314271968.48976970,0.02697070,0.01533397,-0.99951861
1314271968.54960918,0.02679371,0.01508874,-0.99952710
1314271968.58950734,0.02674561,0.01508839,-0.99952840
1314271968.64044428,0.02667823,0.01506125,-0.99953061
1314271968.68849206,0.02651766,0.01526299,-0.99953182
1314271968.74047542,0.02627621,0.01523246,-0.99953866
1314271968.78834224,0.02630990,0.01501311,-0.99954109
1314271968.84060144,0.02608954,0.01506886,-0.99954603
1314271968.88949561,0.02616936,0.01506856,-0.99954395
1314271968.94848919,0.02633129,0.01511248,-0.99953903
1314271968.98848772,0.02640461,0.01508872,-0.99953746
1314271969.03759789,0.02636819,0.01494231,-0.99954062
1314271969.08948040,0.02650751,0.01498045,-0.99953636
1314271969.13648415,0.02641137,0.01484519,-0.99954092
1314271969.19248962,0.02634496,0.01506974,-0.99953932
1314271969.23753881,0.02608430,0.01499684,-0.99954725
1314271969.28949666,0.02614609,0.01506160,-0.99954466
1314271969.33648109,0.02632172,0.01485878,-0.99954309
1314271969.38959432,0.02621801,0.01469214,-0.99954828
1314271969.45268035,0.02643588,0.01465384,-0.99954310
1314271969.48861980,0.02640046,0.01443097,-0.99954728
1314271969.53733659,0.02640948,0.01439994,-0.99954749
1314271969.58786345,0.02634424,0.01419506,-0.99955214
1314271969.63748932,0.02644231,0.01403383,-0.99955183
1314271969.68876338,0.02619801,0.01393944,-0.99955958
1314271969.73645687,0.02605795,0.01396815,-0.99956284
1314271969.78848314,0.02602963,0.01403341,-0.99956267
1314271969.83827353,0.02612615,0.01403333,-0.99956015
1314271969.88847637,0.02612875,0.01416930,-0.99955816
1314271969.94152045,0.02603602,0.01396816,-0.99956341
1314271969.99652481,0.02622239,0.01381448,-0.99956068
1314271970.03649831,0.02609040,0.01398537,-0.99956175
1314271970.08853698,0.02607573,0.01403341,-0.99956146
1314271970.13690138,0.02598886,0.01414039,-0.99956222
1314271970.18858600,0.02593464,0.01427760,-0.99956168
1314271970.24043679,0.02614789,0.01413658,-0.99955812
1314271970.28865337,0.02623146,0.01426290,-0.99955414
1314271970.34161377,0.02630465,0.01439555,-0.99955032
1314271970.38716483,0.02625200,0.01435088,-0.99955234
1314271970.44950485,0.02606556,0.01445885,-0.99955567
1314271970.49007630,0.02609693,0.01445494,-0.99955490
1314271970.54044366,0.02620281,0.01451366,-0.99955128
1314271970.58960533,0.02600909,0.01462550,-0.99955471
1314271970.63804364,0.02593519,0.01470154,-0.99955552
1314271970.68962073,0.02590875,0.01468447,-0.99955645
1314271970.74147224,0.02594508,0.01465841,-0.99955589
1314271970.78848505,0.02587870,0.01480512,-0.99955545
1314271970.84161186,0.02572585,0.01492648,-0.99955759
1314271970.88880992,0.02569147,0.01482648,-0.99955997
1314271970.94965577,0.02551546,0.01491601,-0.99956314
1314271970.98979974,0.02550038,0.01509734,-0.99956080
1314271971.04979801,0.02540899,0.01513851,-0.99956251
1314271971.09707308,0.02544429,0.01530094,-0.99955914
1314271971.14849877,0.02539007,0.01519604,-0.99956212
1314271971.20046949,0.02544935,0.01517133,-0.99956098
1314271971.24852467,0.02534497,0.01532485,-0.99956129
1314271971.29778862,0.02517466,0.01533882,-0.99956538
1314271971.34848595,0.02516357,0.01528443,-0.99956650
1314271971.38955522,0.02502563,0.01545227,-0.99956738
1314271971.45091701,0.02502564,0.01532200,-0.99956938
1314271971.50064158,0.02529440,0.01542657,-0.99956101
1314271971.54960990,0.02542824,0.01530793,-0.99955944
1314271971.59747648,0.02550129,0.01550165,-0.99955459
1314271971.64963913,0.02555064,0.01561857,-0.99955151
1314271971.69763350,0.02581226,0.01566420,-0.99954408
1314271971.74960923,0.02560986,0.01543863,-0.99955279
1314271971.80047131,0.02576995,0.01551443,-0.99954750
1314271971.84847856,0.02575434,0.01550222,-0.99954810
1314271971.90050149,0.02591022,0.01572692,-0.99954056
1314271971.94167876,0.02596417,0.01551615,-0.99954245
1314271972.00046539,0.02583973,0.01574031,-0.99954217
1314271972.04961348,0.02596781,0.01562458,-0.99954067
1314271972.09751320,0.02607554,0.01569748,-0.99953672
1314271972.14848566,0.02612339,0.01578222,-0.99953414
1314271972.19647574,0.02609534,0.01558987,-0.99953789
1314271972.25250125,0.02610301,0.01556225,-0.99953812
1314271972.29649615,0.02606300,0.01567621,-0.99953738
1314271972.34860921,0.02622174,0.01604218,-0.99952742
1314271972.39749050,0.02602528,0.01603451,-0.99953268
1314271972.44847059,0.02602962,0.01588362,-0.99953498
1314271972.49754953,0.02604902,0.01593637,-0.99953363
1314271972.54847836,0.02612991,0.01568511,-0.99953549
1314271972.59645438,0.02607115,0.01588643,-0.99953385
1314271972.65038562,0.02610874,0.01576573,-0.99953478
1314271972.69650292,0.02612367,0.01572922,-0.99953496
1314271972.74071836,0.02611628,0.01587075,-0.99953292
1314271972.79645419,0.02608259,0.01579304,-0.99953503
1314271972.84846163,0.02642062,0.01576034,-0.99952667
1314271972.89821672,0.02653276,0.01577283,-0.99952350
1314271972.94845390,0.02656693,0.01582208,-0.99952182
1314271972.99645424,0.02674452,0.01574641,-0.99951827
1314271973.04625058,0.02698933,0.01569823,-0.99951245
1314271973.09644985,0.02718746,0.01581724,-0.99950521
1314271973.14845347,0.02710788,0.01576072,-0.99950826
1314271973.19650578,0.02730196,0.01567813,-0.99950428
1314271973.24858212,0.02719403,0.01568677,-0.99950708
1314271973.28955793,0.02719179,0.01564856,-0.99950774
1314271973.34847593,0.02723686,0.01578621,-0.99950435
1314271973.38947988,0.02744651,0.01574983,-0.99949919
1314271973.45154023,0.02763753,0.01571246,-0.99949451
1314271973.48878551,0.02753622,0.01557910,-0.99949940
1314271973.54148698,0.02753915,0.01545382,-0.99950126
1314271973.58847117,0.02741333,0.01556947,-0.99950293
1314271973.64049006,0.02720488,0.01561508,-0.99950791
1314271973.68965459,0.02716158,0.01572288,-0.99950740
1314271973.74947047,0.02710347,0.01572466,-0.99950895
1314271973.78962183,0.02746755,0.01576959,-0.99949830
1314271973.85019684,0.02753823,0.01550996,-0.99950042
1314271973.88853025,0.02747289,0.01545395,-0.99950308
1314271973.94849205,0.02748066,0.01550466,-0.99950209
1314271974.00048494,0.02743961,0.01553782,-0.99950270
1314271974.04860282,0.02734680,0.01546932,-0.99950630
1314271974.08849549,0.02736459,0.01584044,-0.99950000
1314271974.14859271,0.02735858,0.01566274,-0.99950297
1314271974.18847609,0.02726641,0.01575305,-0.99950407
1314271974.24847436,0.02723811,0.01560027,-0.99950724
1314271974.29791331,0.02710317,0.01564925,-0.99951014
1314271974.34848857,0.02693445,0.01566288,-0.99951449
1314271974.40047312,0.02725599,0.01565281,-0.99950593
1314271974.44160223,0.02701401,0.01573393,-0.99951122
1314271974.48983502,0.02707802,0.01562088,-0.99951126
1314271974.54846692,0.02713656,0.01571193,-0.99950825
1314271974.58850241,0.02696524,0.01560913,-0.99951450
1314271974.64877653,0.02669700,0.01571041,-0.99952011
1314271974.68960619,0.02678956,0.01591071,-0.99951447
1314271974.74047303,0.02708692,0.01573423,-0.99950925
1314271974.80077410,0.02696745,0.01570580,-0.99951292
1314271974.84858799,0.02731199,0.01579775,-0.99950212
1314271974.88851142,0.02777559,0.01599503,-0.99948621
1314271974.94848847,0.02805092,0.01591312,-0.99947982
1314271974.98914385,0.02828699,0.01584445,-0.99947426
1314271975.03752303,0.02844469,0.01594057,-0.99946826
1314271975.08860874,0.02861126,0.01582342,-0.99946536
1314271975.14062095,0.02873939,0.01585983,-0.99946111
1314271975.19685531,0.02871458,0.01578093,-0.99946307
1314271975.24154282,0.02854873,0.01587210,-0.99946638
1314271975.28953266,0.02854524,0.01601717,-0.99946417
1314271975.34047151,0.02836915,0.01612086,-0.99946751
1314271975.38940215,0.02832555,0.01615746,-0.99946816
1314271975.43839169,0.02848832,0.01614600,-0.99946372
1314271975.48855042,0.02857980,0.01647819,-0.99945568
1314271975.54152513,0.02866610,0.01645769,-0.99945355
1314271975.58849549,0.02868723,0.01670650,-0.99944882
1314271975.64053440,0.02853412,0.01665330,-0.99945409
1314271975.68967295,0.02841341,0.01645884,-0.99946075
1314271975.74148917,0.02810680,0.01641539,-0.99947013
1314271975.78850007,0.02826216,0.01644581,-0.99946525
1314271975.84052753,0.02834989,0.01663640,-0.99945961
1314271975.88851142,0.02823889,0.01637603,-0.99946705
1314271975.94161034,0.02820108,0.01634348,-0.99946865
1314271975.99646378,0.02799244,0.01654899,-0.99947114
1314271976.03764319,0.02820442,0.01619286,-0.99947101
1314271976.08953238,0.02824212,0.01615309,-0.99947059
1314271976.14848137,0.02810331,0.01628865,-0.99947230
1314271976.18961835,0.02815485,0.01647196,-0.99946785
1314271976.24165702,0.02798199,0.01631589,-0.99947526
1314271976.28850603,0.02800387,0.01637153,-0.99947374
1314271976.34162307,0.02808018,0.01630665,-0.99947266
1314271976.38841581,0.02796448,0.01617088,-0.99947811
1314271976.44058657,0.02786550,0.01605448,-0.99948275
1314271976.48953056,0.02793185,0.01590176,-0.99948334
1314271976.54048228,0.02805799,0.01602139,-0.99947790
1314271976.58850288,0.02833321,0.01602690,-0.99947004
1314271976.63750386,0.02835287,0.01607828,-0.99946866
1314271976.68965459,0.02853710,0.01619992,-0.99946145
1314271976.73839211,0.02866111,0.01631929,-0.99945596
1314271976.79043865,0.02838278,0.01612211,-0.99946711
1314271976.83767605,0.02848756,0.01612750,-0.99946404
1314271976.88948464,0.02840508,0.01593582,-0.99946946
1314271976.94148850,0.02836930,0.01611996,-0.99946752
1314271976.98963976,0.02825854,0.01639230,-0.99946623
1314271977.04858828,0.02838431,0.01634147,-0.99946350
1314271977.08985543,0.02837952,0.01629590,-0.99946438
1314271977.14151430,0.02842927,0.01617249,-0.99946497
1314271977.18984103,0.02881956,0.01606394,-0.99945554
1314271977.24159646,0.02870109,0.01603261,-0.99945946
1314271977.28852773,0.02885257,0.01622372,-0.99945201
1314271977.34849930,0.02864092,0.01622091,-0.99945814
1314271977.38962340,0.02852560,0.01605062,-0.99946419
1314271977.43781710,0.02864048,0.01612742,-0.99945967
1314271977.48949766,0.02855396,0.01641256,-0.99945750
1314271977.54154396,0.02828675,0.01633592,-0.99946636
1314271977.59253931,0.02861396,0.01666599,-0.99945159
1314271977.64050055,0.02877265,0.01645693,-0.99945050
1314271977.68972301,0.02869556,0.01664717,-0.99944957
1314271977.74144220,0.02873867,0.01665822,-0.99944814
1314271977.78960466,0.02877354,0.01656011,-0.99944877
1314271977.84169555,0.02877514,0.01648965,-0.99944989
1314271977.88949752,0.02867940,0.01665024,-0.99944998
1314271977.94092870,0.02847986,0.01661421,-0.99945629
1314271977.99249196,0.02831072,0.01674865,-0.99945885
1314271978.04147410,0.02830017,0.01686037,-0.99945727
1314271978.08957434,0.02837843,0.01683697,-0.99945544
1314271978.14847040,0.02875220,0.01673064,-0.99944655
1314271978.18961096,0.02892314,0.01693506,-0.99943817
1314271978.24046111,0.02904423,0.01694082,-0.99943456
1314271978.28951216,0.02898267,0.01696707,-0.99943590
1314271978.34247136,0.02887365,0.01680101,-0.99944186
1314271978.39747620,0.02877893,0.01691996,-0.99944259
1314271978.44047618,0.02878108,0.01715758,-0.99943848
1314271978.48849487,0.02872572,0.01716240,-0.99943999
1314271978.54147172,0.02876159,0.01717422,-0.99943875
1314271978.58955193,0.02901713,0.01724386,-0.99943017
1314271978.63840270,0.02907422,0.01702213,-0.99943231
1314271978.68960166,0.02904594,0.01699664,-0.99943356
1314271978.74150181,0.02915711,0.01695994,-0.99943095
1314271978.79257417,0.02924650,0.01718770,-0.99942445
1314271978.84107184,0.02916282,0.01706860,-0.99942893
1314271978.89030099,0.02950547,0.01709317,-0.99941846
1314271978.94850087,0.02965642,0.01719564,-0.99941223
1314271978.98934150,0.02936324,0.01700860,-0.99942409
1314271979.03777742,0.02923346,0.01703085,-0.99942751
1314271979.08849382,0.02955396,0.01709540,-0.99941699
1314271979.14110374,0.02944544,0.01722288,-0.99941800
1314271979.18847775,0.02944205,0.01720328,-0.99941844
1314271979.24146438,0.02956815,0.01709398,-0.99941659
1314271979.28737521,0.02942862,0.01711988,-0.99942027
1314271979.34160900,0.02921428,0.01689504,-0.99943038
1314271979.38961887,0.02920980,0.01662544,-0.99943503
1314271979.44045639,0.02908969,0.01640545,-0.99944217
1314271979.48962188,0.02878449,0.01651998,-0.99944912
1314271979.54205775,0.02894656,0.01674239,-0.99944074
1314271979.60076141,0.02872582,0.01691571,-0.99944419
1314271979.64067626,0.02849413,0.01715390,-0.99944676
1314271979.69007683,0.02848303,0.01710049,-0.99944799
1314271979.74150920,0.02835588,0.01720480,-0.99944982
1314271979.78955817,0.02858240,0.01744179,-0.99943926
1314271979.83779478,0.02859691,0.01764475,-0.99943528
1314271979.88960075,0.02870763,0.01754027,-0.99943395
1314271979.94161725,0.02872623,0.01766405,-0.99943123
1314271979.98966265,0.02880612,0.01789710,-0.99942479
1314271980.04049206,0.02875523,0.01805477,-0.99942341
1314271980.08747864,0.02876524,0.01789978,-0.99942591
1314271980.14048028,0.02854726,0.01783572,-0.99943331
1314271980.18963432,0.02859326,0.01793987,-0.99943013
1314271980.24496746,0.02826461,0.01806289,-0.99943726
1314271980.28960967,0.02821200,0.01803938,-0.99943917
1314271980.34161210,0.02829296,0.01816535,-0.99943460
1314271980.38877797,0.02822873,0.01824100,-0.99943504
1314271980.44152379,0.02827841,0.01808991,-0.99943638
1314271980.48980522,0.02831418,0.01828984,-0.99943173
1314271980.54051352,0.02833044,0.01833875,-0.99943038
1314271980.58968568,0.02820307,0.01812302,-0.99943791
1314271980.64176750,0.02823135,0.01803087,-0.99943878
1314271980.68855405,0.02823365,0.01781995,-0.99944250
1314271980.74129653,0.02830006,0.01776968,-0.99944152
1314271980.79250026,0.02813032,0.01764132,-0.99944858
1314271980.84061527,0.02818489,0.01774404,-0.99944523
1314271980.88956237,0.02843423,0.01755817,-0.99944145
1314271980.94046950,0.02853158,0.01739887,-0.99944146
1314271980.98960495,0.02837192,0.01726651,-0.99944830
1314271981.04049492,0.02816178,0.01699608,-0.99945888
1314271981.08860970,0.02806221,0.01697024,-0.99946212
1314271981.13761854,0.02798244,0.01670868,-0.99946876
1314271981.18851852,0.02795598,0.01696494,-0.99946518
1314271981.23745918,0.02793413,0.01700585,-0.99946510
1314271981.28953147,0.02764869,0.01679510,-0.99947660
1314271981.34146380,0.02767122,0.01714689,-0.99947000
1314271981.38960981,0.02759896,0.01711288,-0.99947258
1314271981.43743420,0.02750043,0.01743001,-0.99946982
1314271981.48948240,0.02736091,0.01719475,-0.99947772
1314271981.53759837,0.02736002,0.01700159,-0.99948105
1314271981.58976889,0.02720895,0.01696671,-0.99948577
1314271981.63761139,0.02702421,0.01691856,-0.99949160
1314271981.68948746,0.02698597,0.01707483,-0.99948997
1314271981.74047279,0.02699455,0.01711730,-0.99948902
1314271981.78850937,0.02703501,0.01716991,-0.99948702
1314271981.83771372,0.02722704,0.01739672,-0.99947788
1314271981.88849139,0.02721859,0.01735627,-0.99947882
1314271981.93783712,0.02723032,0.01726637,-0.99948006
1314271981.98752022,0.02731828,0.01730661,-0.99947696
1314271982.04059315,0.02724891,0.01726810,-0.99947952
1314271982.09021425,0.02729439,0.01739730,-0.99947604
1314271982.14848900,0.02732024,0.01735787,-0.99947602
1314271982.18950057,0.02739226,0.01767712,-0.99946845
1314271982.24559426,0.02729488,0.01747647,-0.99947464
1314271982.28849363,0.02720867,0.01737008,-0.99947885
1314271982.33748126,0.02740235,0.01736582,-0.99947363
1314271982.39250803,0.02726546,0.01760587,-0.99947318
1314271982.43746996,0.02720252,0.01756815,-0.99947555
1314271982.48990464,0.02730959,0.01741401,-0.99947533
1314271982.53745937,0.02757490,0.01752333,-0.99946614
1314271982.58847785,0.02748081,0.01757378,-0.99946784
1314271982.64047241,0.02769716,0.01751034,-0.99946298
1314271982.68947840,0.02771308,0.01764491,-0.99946018
1314271982.73750758,0.02776243,0.01767778,-0.99945823
1314271982.78920269,0.02798403,0.01789198,-0.99944823
1314271982.84052682,0.02791294,0.01793072,-0.99944953
1314271982.88985515,0.02789074,0.01802935,-0.99944837
1314271982.94075274,0.02794348,0.01803247,-0.99944684
1314271982.98852539,0.02791989,0.01791096,-0.99944969
1314271983.03747272,0.02801244,0.01798798,-0.99944571
1314271983.08961630,0.02798711,0.01786504,-0.99944863
1314271983.13760090,0.02770738,0.01793576,-0.99945516
1314271983.18752289,0.02790792,0.01803875,-0.99944772
1314271983.23760462,0.02808952,0.01801371,-0.99944309
1314271983.28994393,0.02799283,0.01792734,-0.99944735
1314271983.34048629,0.02807161,0.01791591,-0.99944535
1314271983.38853812,0.02836523,0.01792857,-0.99943683
1314271983.43777680,0.02828505,0.01782114,-0.99944103
1314271983.48961186,0.02849890,0.01778070,-0.99943567
1314271983.53759789,0.02868492,0.01804210,-0.99942566
1314271983.59250689,0.02865979,0.01788401,-0.99942923
1314271983.63781190,0.02852839,0.01807859,-0.99942949
1314271983.68849254,0.02863602,0.01806973,-0.99942657
1314271983.74045610,0.02862852,0.01804187,-0.99942729
1314271983.79748797,0.02868872,0.01822624,-0.99942221
